Location: Denia
(38.8500°N, 0.1170°E)
Time: 21:45:36
(UTC+01:00)

Envisat - Pass Details

Date: 26 January 2020
Orbit: 764 x 766 km, 98.1° (Epoch: 23 February)

Event Time Altitude Azimuth Distance (km) Brightness Sun altitude
Rises 06:36:34 0° 29° (NNE) 3,238 6.5 -18.4°
Reaches altitude 10° 06:39:27 10° 45° (NE) 2,306 5.9 -17.9°
Maximum altitude 06:43:12 21° 93° (E) 1,688 5.8 -17.1°
Drops below altitude 10° 06:46:56 10° 141° (SE) 2,294 6.2 -16.4°
Sets 06:49:47 0° 157° (SSE) 3,214 6.7 -15.9°
